Regional Weather Roundup
Issued by NWS Sioux Falls, SD

Home | Current Version | Previous Version | Text Only | Print | Product List | Glossary Off
Versions: 1 2 3 4 5 6 7 8 9 10 11 12 13 14 15 16 17 18 19 20 21 22 23 24 25 26 27 28 29 30 31 32 33 34 35 36 37 38 39 40 41 42 43 44 45 46 47 48 49 50

000
ASUS43 KFSD 010102
RWRFSD

WEATHER ROUNDUP FOR SE SOUTH DAKOTA/SW MINNESOTA/NW IOWA
NATIONAL WEATHER SERVICE SIOUX FALLS SD
700 PM CST SAT JAN 31 2015

NOTE: "FAIR" INDICATES FEW OR NO CLOUDS BELOW 12,000 FEET WITH NO
SIGNIFICANT WEATHER AND OR OBSTRUCTIONS TO VISIBILITY.


SDZ038>040-050-052>070-010200-
SOUTHEAST SOUTH DAKOTA

CITY           SKY/WX    TMP DP  RH WIND       PRES   REMARKS
CHAMBERLAIN    NOT AVBL
HURON          CLOUDY    20  14  77 NE18      30.15R WCI   5
MADISON        FLURRIES  23  23 100 NE22      30.06S WCI   8
MITCHELL       FRZ RAIN  24  22  91 NE14      30.10R FOG     WCI  12
SIOUX FALLS    LGT SNOW  25  23  92 NE18      30.05S VSB 3/4 WCI  11
WINNER         LGT SNOW  21  17  84 NE17      30.06R VSB 3/4 WCI   7
YANKTON        CLOUDY    27  25  93 NE14      30.02S WCI  15
$$

MNZ071-072-080-081-089-090-097-098-010200-
SOUTHWEST MINNESOTA

CITY           SKY/WX    TMP DP  RH WIND       PRES   REMARKS
FAIRMONT       CLOUDY    27  25  93 NE16      30.08S WCI  14
JACKSON        LGT SNOW  28  27  93 NE16      30.07S WCI  17
LUVERNE        LGT SNOW  28  27  93 NE16G22   30.05S WCI  17
MARSHALL       CLOUDY    25  18  74 NE10      30.16R WCI  15
MONTEVIDEO     CLOUDY    25  18  74 E8        30.18R WCI  16
PIPESTONE      LGT SNOW  25  23  93 E9        30.06S WCI  15
REDWOOD FALLS  CLOUDY    27  19  72 NE8       30.16R WCI  19
TRACY          CLOUDY    26  23  90 NE12      30.12S WCI  15
WINDOM         LGT SNOW  27  25  93 NE13      30.09S WCI  16
WORTHINGTON    CLOUDY    27  25  93 NE16      30.07R WCI  14
$$

IAZ001>003-012>014-020>022-031-032-NEZ013-014-SDZ071-010200-
NORTHWEST IOWA

CITY           SKY/WX    TMP DP  RH WIND       PRES   REMARKS
ESTHERVILLE    LGT SNOW  27  27 100 NE17      30.05S VSB 3/4 WCI  14
SIOUX CITY     LGT SNOW  33  31  92 E12       29.98F FOG     WCI  24
SPENCER        LGT SNOW  29  26  89 NE17      30.04S FOG     WCI  17
$$

ABBREVIATIONS USED IN REMARKS
   TC - TEMPERATURE IN CELSIUS
  WCI - WIND CHILL INDEX
   HX - HEAT INDEX
  VSB - VISIBILITY



USA.gov is the U.S. government's official web portal to all federal, state and local government web resources and services.